Weather History for KGUY - May, 2013

Change the Weather History Date:

Friday, May 3, 2013

  Actual Average Record
Temperature  
Mean Temperature 48 °F 61 °F  
Max Temperature 68 °F 76 °F 92 °F (2014)
Min Temperature 28 °F 46 °F 28 °F (2013)
Degree Days  
Heating Degree Days 17 5  
Month to date heating degree days 53 17  
Since 1 July heating degree days 4266 4370  
Cooling Degree Days 0 1  
Month to date cooling degree days 0 3  
Year to date cooling degree days 25 18  
Moisture  
Dew Point 18 °F    
Average Humidity 39    
Maximum Humidity 63    
Minimum Humidity 14    
Precipitation  
Precipitation 0.00 in 0.06 in 0.28 in (2001)
Month to date precipitation 0.02 0.13  
Year to date precipitation 2.21 3.94  
Snow  
Snow 0.00 in - - ()
Month to date snowfall 0.3  
Since 1 July snowfall 22.3  
Snow Depth 0.00 in    
Sea Level Pressure  
Sea Level Pressure 30.19 in    
Wind  
Wind Speed 9 mph (NW)    
Max Wind Speed 21 mph    
Max Gust Speed 26 mph    
Visibility 10 miles    
Events      
T = Trace of Precipitation, MM = Missing Value Source: NWS Daily Summary

Daily Weather History Graph

Daily Weather History Graph

Search for Another Location

Airport or City:

Trip Planner

Search our weather history database for the weather conditions in past years. The results will help you decide how hot, cold, wet, or windy it might be!

Date:

Astronomy

May. 03, 2013 Rise Set
Actual Time 6:49 AM CDT 8:36 PM CDT
Civil Twilight 6:21 AM CDT 9:04 PM CDT
Nautical Twilight 5:48 AM CDT 9:38 PM CDT
Astronomical Twilight 5:12 AM CDT 10:14 PM CDT
Moon 3:05 AM CDT (5/3) 2:42 PM CDT (5/3)
Length of Visible Light 14h 42m
Length of Day
13h 46m
Last Quarter, 37% of the Moon is Illuminated
May 3
Last Quarter
May 9
New
May 17
First Quarter
May 24
Full
May 31
Last Quarter

Hourly Weather History & Observations

Time (CDT) Temp. Windchill Dew Point Humidity Pressure Visibility Wind Dir Wind Speed Gust Speed Precip Events Conditions
12:53 AM 34.0 °F 27.2 °F 21.0 °F 59% 30.48 in 10.0 mi West 8.1 mph - N/A   Clear
1:53 AM 33.1 °F 26.1 °F 19.0 °F 56% 30.45 in 10.0 mi West 8.1 mph - N/A   Clear
2:53 AM 32.0 °F 23.6 °F 19.0 °F 59% 30.41 in 10.0 mi West 10.4 mph - N/A   Clear
3:53 AM 28.9 °F 21.9 °F 18.0 °F 64% 30.40 in 10.0 mi West 6.9 mph - N/A   Clear
4:53 AM 30.9 °F 20.7 °F 17.1 °F 57% 30.38 in 10.0 mi West 13.8 mph - N/A   Clear
5:53 AM 30.0 °F 21.7 °F 16.0 °F 56% 30.37 in 10.0 mi West 9.2 mph - N/A   Clear
6:53 AM 30.9 °F 22.8 °F 15.1 °F 52% 30.35 in 10.0 mi West 9.2 mph - N/A   Clear
7:53 AM 34.0 °F 28.0 °F 17.1 °F 50% 30.34 in 10.0 mi WSW 6.9 mph - N/A   Clear
8:53 AM 41.0 °F 35.2 °F 16.0 °F 36% 30.31 in 10.0 mi West 9.2 mph - N/A   Clear
9:53 AM 51.1 °F - 19.9 °F 29% 30.26 in 10.0 mi WNW 8.1 mph - N/A   Clear
10:53 AM 55.9 °F - 15.1 °F 20% 30.22 in 10.0 mi NW 5.8 mph 17.3 mph N/A   Clear
11:53 AM 57.9 °F - 15.1 °F 19% 30.21 in 10.0 mi Variable 4.6 mph - N/A   Clear
12:53 PM 61.0 °F - 17.1 °F 18% 30.16 in 10.0 mi North 11.5 mph - N/A   Clear
1:53 PM 61.0 °F - 17.1 °F 18% 30.12 in 10.0 mi NE 8.1 mph - N/A   Clear
2:53 PM 63.0 °F - 16.0 °F 16% 30.08 in 10.0 mi Variable 3.5 mph - N/A   Clear
3:53 PM 68.0 °F - 18.0 °F 15% 30.04 in 10.0 mi NNW 10.4 mph 20.7 mph N/A   Clear
4:53 PM 68.0 °F - 18.0 °F 15% 30.01 in 10.0 mi North 17.3 mph 24.2 mph N/A   Clear
5:53 PM 66.9 °F - 19.0 °F 16% 29.99 in 10.0 mi North 12.7 mph 24.2 mph N/A   Clear
6:53 PM 66.0 °F - 19.9 °F 17% 29.99 in 10.0 mi NNE 13.8 mph 21.9 mph N/A   Clear
7:53 PM 62.1 °F - 19.0 °F 19% 29.99 in 10.0 mi NNE 13.8 mph - N/A   Clear
8:53 PM 57.0 °F - 21.0 °F 25% 30.01 in 10.0 mi NE 8.1 mph - N/A   Clear
9:53 PM 54.0 °F - 21.0 °F 28% 30.01 in 10.0 mi ENE 11.5 mph - N/A   Clear
10:53 PM 50.0 °F - 21.0 °F 32% 30.03 in 10.0 mi ENE 8.1 mph - N/A   Clear
11:53 PM 46.9 °F - 21.0 °F 36% 30.03 in 10.0 mi Calm Calm - N/A   Clear